Location: Stanford
(52.2833°N, 2.4333°W)
Time: 01:06:54
(UTC+00:00)

COSMOS 2455 - Pass Details

Date: 22 January 2021
Orbit: 901 x 908 km, 67.1° (Epoch: 28 February)

Event Time Altitude Azimuth Distance (km) Brightness Sun altitude
Rises 17:48:57 0° 199° (SSW) 3,521 6.5 -10.5°
Reaches altitude 10° 17:51:29 10° 195° (SSW) 2,584 5.7 -10.9°
Maximum altitude 17:57:19 55° 120° (ESE) 1,080 3.0 -11.7°
Enters shadow 18:02:43 12° 45° (NE) 2,432 4.6 -12.5°
